Location: Newark
(48.0000°N, 67.0000°E)
Time: 01:12:34
(UTC+00:00)

N. Korean satellite - Pass Details

Date: 24 January 2020
Orbit: 456 x 505 km, 97.2° (Epoch: 25 February)

Event Time Altitude Azimuth Distance (km) Brightness Sun altitude
Rises 01:24:52 0° 13° (NNE) 2,530 10.3 -17.4°
Reaches altitude 10° 01:26:55 10° 14° (NNE) 1,655 9.3 -17.0°
Maximum altitude 01:30:29 83° 103° (ESE) 492 6.6 -16.5°
Drops below altitude 10° 01:34:04 10° 191° (S) 1,669 9.3 -15.9°
Sets 01:36:09 0° 192° (SSW) 2,553 10.2 -15.5°
